TimeCDT,TemperatureF,Dew PointF,Humidity,Sea Level PressureIn,VisibilityMPH,Wind Direction,Wind SpeedMPH,Gust SpeedMPH,PrecipitationIn,Events,Conditions,WindDirDegrees,DateUTC
12:58 AM,84.2,62.8,48,29.94,10.0,SE,10.4,-,N/A,,Clear,130,2013-08-04 05:58:00
1:58 AM,81.7,63.7,54,29.94,10.0,SE,9.2,-,N/A,,Clear,130,2013-08-04 06:58:00
2:58 AM,77.2,64.0,64,29.94,10.0,SSE,6.9,-,N/A,,Clear,150,2013-08-04 07:58:00
3:58 AM,74.8,64.2,69,29.95,10.0,East,4.6,-,N/A,,Clear,100,2013-08-04 08:58:00
4:58 AM,72.7,64.0,74,29.96,10.0,East,3.5,-,N/A,,Clear,90,2013-08-04 09:58:00
5:58 AM,71.6,64.4,78,29.98,10.0,ENE,3.5,-,N/A,,Clear,60,2013-08-04 10:58:00
6:58 AM,71.4,64.4,78,29.98,10.0,ESE,5.8,-,N/A,,Clear,110,2013-08-04 11:58:00
7:58 AM,74.1,66.0,76,30.00,10.0,ESE,4.6,-,N/A,,Clear,110,2013-08-04 12:58:00
8:58 AM,82.0,66.7,60,30.00,10.0,South,10.4,-,N/A,,Clear,180,2013-08-04 13:58:00
9:33 AM,87.8,66.2,49,30.05,10.0,South,15.0,-,N/A,Rain,Light Rain,190,2013-08-04 14:33:00
9:35 AM,87.8,64.4,46,30.05,10.0,South,15.0,-,N/A,,Clear,190,2013-08-04 14:35:00
9:58 AM,89.4,64.6,44,30.00,10.0,SSW,11.5,-,0.00,,Clear,210,2013-08-04 14:58:00
10:00 AM,89.6,64.4,43,30.04,10.0,SSW,11.5,-,N/A,Rain,Light Rain,210,2013-08-04 15:00:00
10:03 AM,89.6,64.4,43,30.04,10.0,SSW,13.8,-,N/A,,Clear,200,2013-08-04 15:03:00
10:58 AM,94.3,62.4,35,29.97,10.0,SW,12.7,-,0.00,,Clear,230,2013-08-04 15:58:00
11:58 AM,95.4,62.2,33,29.96,10.0,SW,12.7,-,N/A,,Clear,230,2013-08-04 16:58:00
12:58 PM,97.7,61.5,30,29.96,10.0,South,9.2,-,N/A,,Partly Cloudy,190,2013-08-04 17:58:00
1:58 PM,99.1,61.7,29,29.94,10.0,SSE,5.8,-,N/A,,Partly Cloudy,160,2013-08-04 18:58:00
2:58 PM,100.4,60.6,27,29.93,10.0,SSW,9.2,16.1,N/A,,Scattered Clouds,200,2013-08-04 19:58:00
3:58 PM,100.6,61.0,27,29.91,10.0,SSE,15.0,20.7,N/A,,Clear,160,2013-08-04 20:58:00
4:17 PM,102.2,60.8,26,29.95,10.0,SSE,12.7,20.7,N/A,,Scattered Clouds,150,2013-08-04 21:17:00
4:58 PM,99.9,61.3,28,29.89,10.0,South,10.4,-,N/A,,Clear,190,2013-08-04 21:58:00
5:58 PM,100.2,61.2,28,29.88,10.0,South,12.7,-,N/A,,Clear,190,2013-08-04 22:58:00
6:58 PM,98.4,60.6,29,29.87,10.0,SSE,12.7,-,N/A,,Clear,160,2013-08-04 23:58:00
7:09 PM,98.6,60.8,29,29.91,10.0,SSW,13.8,20.7,N/A,,Clear,200,2013-08-05 00:09:00
7:58 PM,96.1,62.1,32,29.87,10.0,South,10.4,-,N/A,,Clear,170,2013-08-05 00:58:00
8:58 PM,91.0,62.2,38,29.88,10.0,SSE,8.1,-,N/A,,Clear,160,2013-08-05 01:58:00
9:58 PM,85.6,63.1,47,29.90,10.0,SSE,6.9,-,N/A,,Clear,150,2013-08-05 02:58:00
10:58 PM,86.9,63.1,45,29.91,10.0,SE,11.5,-,N/A,,Clear,130,2013-08-05 03:58:00
11:58 PM,84.6,63.3,49,29.92,10.0,SE,10.4,-,N/A,,Clear,140,2013-08-05 04:58:00